Find WEOS

NORAD ID: 27599 Int'l Des: 2002-056 Owner: CHIBA Country: J operational
LEOCIRCULARRETROGRADESSO

Live Position

Loading 3D Globe...

About WEOS

Description loading...

Upcoming Passes

Passes for default location (London). Set your location on the main map for personalized predictions.

Altitude History

Loading altitude history...

Two-Line Element Set

1 27599U 02056C 26106.40209100 .00000087 00000-0 50769-4 0 9992
2 27599 98.8115 73.3160 0010440 129.4470 230.7638 14.30822989217513
Epoch: Apr 16, 2026 • Age: 31 hours

Current Status

Altitude 796.7 km
Velocity 7.46 km/s
Sub-Earth Point 72.58°N, 43.76°W
Launch Date Dec 14, 2002
Age 23.3 years
Type other

Technical Details

Classification Payload
Mass 50.00 kg
Dry Mass 50.00 kg
Total Mass 50.00 kg
Length 0.50 m
Diameter 0.50 m
Span 3.50 m
Shape Box + Ant
Manufacturer CHIBA
Phase Status In Orbit
Owner/State CHIBA/J

Most Searched